Location: Newark
(39.0622°N, 106.5590°E)
Time: 00:59:16
(UTC+00:00)

Courier 1B - Pass Details

Date: 24 January 2020
Orbit: 962 x 1209 km, 28.3° (Epoch: 20 February)

Event Time Altitude Azimuth Distance (km) Brightness Sun altitude
Rises 22:04:44 0° 254° (WSW) 3,952 - -23.6°
Reaches altitude 10° 22:07:41 10° 246° (WSW) 3,028 - -23.0°
Exits shadow 22:10:48 24° 229° (SW) 2,193 9.0 -22.4°
Maximum altitude 22:14:26 37° 183° (S) 1,752 8.8 -21.7°
Drops below altitude 10° 22:21:27 10° 119° (ESE) 3,133 11.2 -20.4°
Sets 22:24:33 0° 111° (ESE) 4,105 12.2 -19.8°
